Location: B
(0.0000°N, 0.0000°E)
Time: 23:47:06
(UTC+02:00)

Daily predictions for brighter satellites

Satellite Brightness Start Highest point End
(mag) Time Altitude Azimuth Time Altitude Azimuth Time Altitude Azimuth
ARIANE 5 R/B 2.8 19:48:23 10° W 19:51:24 87° S 20:05:31 10° E
SPOT 3 Rocket 4.0 20:11:59 10° SE 20:16:44 38° ENE 20:21:28 10° N
Cosmos 2369 Rocket 3.0 20:17:25 10° NNE 20:22:05 27° ENE 20:26:45 10° SE
Cosmos 1766 4.4 20:18:53 10° SSE 20:22:06 23° E 20:25:16 10° NE
Cosmos 1842 3.5 20:18:30 10° N 20:22:24 75° W 20:26:18 10° S
Cosmos 1726 Rocket 3.9 20:18:13 10° S 20:22:38 74° W 20:27:00 10° N
Thor Agena Rocket 3.8 20:20:19 10° N 20:25:26 73° WNW 20:30:32 10° SSW
BREEZE-M DEB (TANK) 4.2 20:15:09 10° SW 20:26:03 51° WNW 20:29:18 10° NNE
Lacrosse 5 3.6 20:24:32 10° NNE 20:26:48 13° ENE 20:28:37 11° E
Cosmos 2184 Rocket 4.1 20:27:42 10° SSE 20:33:43 51° E 20:39:44 10° NNE
Cosmos 1184 Rocket 2.8 20:34:42 10° N 20:38:04 87° E 20:41:27 10° S
Cosmos 1758 Rocket 4.2 20:35:23 10° NNE 20:39:28 35° E 20:43:32 10° SSE
IUS-13 SRM-1 1.6 20:37:58 10° WSW 20:41:16 56° NNW 20:42:22 20° NE
Cosmos 2082 Rocket 4.0 20:39:20 10° SE 20:40:22 12° ESE 20:40:22 12° ESE
Gbstr 26 Del rocket 3.0 20:39:51 10° SSW 20:43:46 55° SE 20:47:56 12° NE
Cosmos 1544 3.4 20:40:56 10° SSE 20:44:21 39° E 20:47:45 10° NNE
Ariane 42P Rocket 4.4 20:11:52 10° W 20:44:31 90° S 20:48:24 20° E
Cosmos 1707 3.5 20:43:12 10° NNE 20:46:38 30° E 20:50:06 10° SSE
Cosmos 1898 Rocket 4.1 20:43:40 10° NNE 20:48:16 33° ENE 20:52:52 10° SE
GPS 2-17 Rocket1 2.9 20:44:01 10° WNW 20:48:20 77° SSW 20:51:09 21° ESE
ARIANE 5 R/B 1.2 20:45:34 10° WSW 20:48:33 52° S 20:49:54 26° ESE
ATLAS 2A CENTAUR R/B 2.4 20:46:06 10° SSW 20:48:44 31° SE 20:51:12 21° E
YAOGAN 1 4.5 20:46:58 10° SSW 20:50:51 33° WSW 20:54:44 10° NW
Cosmos 2228 4.2 20:48:23 10° SSW 20:52:37 46° W 20:56:48 10° NNW
Cosmos 292 Rocket 4.1 20:49:40 10° S 20:54:14 43° ESE 20:58:47 10° NNE
SEDSat Delta rocket 3.9 20:49:03 10° SW 20:54:37 57° SE 20:58:19 24° ENE
Cosmos 2327 Rocket 4.4 20:49:17 10° S 20:55:32 76° E 21:01:39 10° N
Spelda 3.6 20:52:49 10° WSW 20:56:04 51° S 21:01:20 21° ESE
ARIANE 2 DEBRIS 4.2 20:45:56 10° WNW 20:56:14 47° N 20:58:15 24° ENE
Cosmos 1805 3.6 20:53:48 10° SSE 20:57:29 39° E 21:00:37 13° NNE
NOSS 3-3 (A) 4.3 20:52:02 10° S 20:57:29 36° ESE 21:00:18 23° ENE
NOSS 3-3 (C) 4.4 20:52:10 10° S 20:57:35 35° ESE 21:00:16 24° ENE
ATLAS 5 CENTAUR R/B 2.2 20:55:11 10° S 20:59:18 34° ESE 21:00:00 32° E
Cosmos 1812 Rocket 3.7 20:56:53 10° SSE 21:01:07 48° E 21:05:23 10° NNE
GEOS 3 Rocket 4.0 20:56:02 10° NNE 21:01:20 67° WNW 21:06:34 10° SW
USA 215 3.9 21:00:11 25° E 21:03:01 35° SE 21:08:50 10° S
Cosmos 1378 3.3 21:00:07 10° N 21:03:45 48° E 21:05:10 31° SE
USA 81 3.9 21:02:21 10° N 21:07:36 72° E 21:12:51 10° S
Cosmos 1340 Rocket 2.8 21:07:01 10° N 21:11:05 82° W 21:15:10 10° S
Ariane H10 2.7 21:14:11 10° WSW 21:16:33 38° S 21:16:33 38° S
ALOS 2.7 21:13:00 10° S 21:17:37 61° WSW 21:22:12 10° NNW
Cosmos 1943 Rocket 2.1 21:14:45 10° N 21:20:17 62° ENE 21:22:51 32° SE
GPS 2-12 Rocket1 3.0 21:16:12 10° WSW 21:20:57 77° SSE 21:21:34 65° E
Cosmos 858 Rocket 4.3 21:17:20 10° N 21:22:31 70° ENE 21:24:45 34° SSE
Star 37E S/N 40099 4.5 21:17:25 10° NW 21:22:41 47° NNE 21:22:41 47° NNE
Palapa 6 Rocket 4.2 21:21:34 10° SW 21:24:44 28° S 21:24:44 28° S
Cosmos 1953 Rocket 4.4 21:21:54 10° NNW 21:26:04 50° W 21:30:17 10° S
Cosmos 1937 Rocket 3.3 21:26:15 10° N 21:31:25 72° ENE 21:31:25 72° ENE
FENGYUN 3A 4.5 21:27:25 10° S 21:32:34 49° WSW 21:37:42 10° NNW
Cosmos 2298 Rocket 3.9 21:31:22 10° N 21:36:41 85° ENE 21:37:05 76° SE
GPS 2-18 Rocket1 4.1 21:33:49 10° W 21:37:01 46° WNW 21:37:01 46° WNW
Cosmos 2154 Rocket 4.0 21:32:34 10° S 21:38:45 76° W 21:44:57 10° N
FengYun 1-2 T 4.4 21:39:11 10° S 21:44:48 72° WSW 21:50:24 10° NNW
Cosmos 2341 Rocket 3.8 21:42:44 10° S 21:48:59 87° E 21:49:29 77° NNE
Meteor 2-5 Rocket 4.5 21:46:30 10° NNW 21:51:59 50° W 21:57:23 10° S
USA 234 3.1 21:52:59 76° SE 21:53:36 89° NE 22:00:09 10° NW
Ariane 44LP R/B 3.7 21:39:57 10° W 22:00:17 74° SSW 22:00:17 74° SSW
Cosmos 1833 Rocket 4.0 22:00:37 10° SSW 22:03:31 32° SSW 22:03:31 32° SSW
Lacrosse 5 3.4 22:04:47 10° NW 22:07:56 33° WNW 22:07:56 33° WNW
Lacrosse 4 Rocket 4.3 22:06:01 10° SSW 22:06:14 11° SW 22:06:14 11° SW
ARIANE 5 R/B 3.9 13:10:27 10° W 22:20:14 78° SSW 22:20:14 78° SSW
Cosmos 2082 Rocket 4.1 22:20:04 10° SW 22:22:20 23° SW 22:22:20 23° SW
Ariane H10+ 3.8 13:18:31 10° W 22:35:43 86° NNW 22:35:43 86° NNW
Atlas 2A Centaur Rocket 4.2 22:23:37 10° WSW 22:38:46 52° W 22:38:46 52° W
ATLAS 2AS CENTAUR RB 4.5 22:41:48 10° W 22:47:18 23° WNW 22:47:18 23° WNW
